Weather History for Quincy, IL

Change the Weather History Date:

Friday, September 27, 2013

  Actual Average Record
Temperature  
Mean Temperature 71 °F 62 °F  
Max Temperature 83 °F 72 °F 92 °F (1929)
Min Temperature 59 °F 51 °F 33 °F (1942)
Degree Days  
Heating Degree Days 0 6  
Month to date heating degree days 24 65  
Since 1 July heating degree days 30 70  
Cooling Degree Days 6 2  
Month to date cooling degree days 191 117  
Year to date cooling degree days 1197 1070  
Growing Degree Days 21 (Base 50)    
Moisture  
Dew Point 56 °F    
Average Humidity 62    
Maximum Humidity 84    
Minimum Humidity 40    
Precipitation  
Precipitation 0.00 in 0.12 in 2.24 in (1923)
Month to date precipitation 1.35 2.99  
Year to date precipitation 29.45 28.74  
Sea Level Pressure  
Sea Level Pressure 30.02 in    
Wind  
Wind Speed 9 mph (SSE)    
Max Wind Speed 17 mph    
Max Gust Speed 23 mph    
Visibility 10 miles    
Events      
T = Trace of Precipitation, MM = Missing Value Source: NWS Daily Summary

Daily Weather History Graph

Daily Weather History Graph

Search for Another Location

Airport:

Trip Planner

Search our weather history database for the weather conditions in past years. The results will help you decide how hot, cold, wet, or windy it might be!

Date:

Astronomy

Sep. 27, 2013 Rise Set
Actual Time 6:57 AM CDT 6:53 PM CDT
Civil Twilight 6:30 AM CDT 7:20 PM CDT
Nautical Twilight 5:58 AM CDT 7:51 PM CDT
Astronomical Twilight 5:27 AM CDT 8:23 PM CDT
Moon No Moon Rise 2:31 PM CDT (9/27)
Length of Visible Light 12h 49m
Length of Day
11h 55m
Last Quarter, 45% of the Moon is Illuminated
Sep 27
Last Quarter
Oct 4
New
Oct 11
First Quarter
Oct 18
Full
Oct 26
Last Quarter

Hourly Weather History & Observations

Time (CDT) Temp. Heat Index Dew Point Humidity Pressure Visibility Wind Dir Wind Speed Gust Speed Precip Events Conditions
12:54 AM 64.0 °F - 55.0 °F 73% 30.00 in 10.0 mi SSE 4.6 mph - N/A   Clear
1:54 AM 63.0 °F - 55.0 °F 75% 30.01 in 10.0 mi SE 5.8 mph - N/A   Clear
2:54 AM 61.0 °F - 55.0 °F 81% 30.02 in 10.0 mi SE 6.9 mph - N/A   Clear
4:54 AM 61.0 °F - 55.0 °F 81% 30.03 in 9.0 mi SE 5.8 mph - N/A   Clear
5:54 AM 60.1 °F - 55.0 °F 83% 30.05 in 8.0 mi SE 5.8 mph - N/A   Clear
6:54 AM 60.1 °F - 55.0 °F 83% 30.06 in 6.0 mi SE 4.6 mph - N/A   Haze
7:54 AM 61.0 °F - 55.9 °F 83% 30.08 in 6.0 mi SE 5.8 mph - N/A   Haze
8:54 AM 70.0 °F - 60.1 °F 71% 30.07 in 10.0 mi SSE 8.1 mph - N/A   Clear
9:54 AM 73.9 °F - 61.0 °F 64% 30.08 in 10.0 mi South 11.5 mph - N/A   Clear
10:54 AM 78.1 °F - 62.1 °F 58% 30.07 in 10.0 mi SSE 13.8 mph - N/A   Clear
11:54 AM 81.0 °F 81.3 °F 59.0 °F 47% 30.06 in 10.0 mi South 11.5 mph 21.9 mph N/A   Clear
12:54 PM 81.0 °F 81.1 °F 57.9 °F 45% 30.04 in 10.0 mi SSE 9.2 mph 18.4 mph N/A   Clear
1:54 PM 82.0 °F 82.0 °F 57.9 °F 44% 30.01 in 10.0 mi South 13.8 mph - N/A   Partly Cloudy
2:54 PM 82.9 °F 82.1 °F 55.9 °F 39% 30.00 in 10.0 mi SSE 12.7 mph 23.0 mph N/A   Partly Cloudy
3:54 PM 82.0 °F 81.7 °F 57.0 °F 42% 29.98 in 10.0 mi SSE 17.3 mph 21.9 mph N/A   Clear
4:54 PM 82.0 °F 81.7 °F 57.0 °F 42% 29.98 in 10.0 mi SSE 8.1 mph - N/A   Clear
5:54 PM 80.1 °F 80.4 °F 57.0 °F 45% 29.98 in 10.0 mi SSE 12.7 mph - N/A   Clear
6:54 PM 75.0 °F - 55.9 °F 51% 29.98 in 10.0 mi SE 5.8 mph - N/A   Clear
7:54 PM 70.0 °F - 55.9 °F 61% 29.98 in 10.0 mi SE 6.9 mph - N/A   Clear
8:54 PM 69.1 °F - 55.0 °F 61% 29.99 in 10.0 mi SE 8.1 mph - N/A   Clear
9:54 PM 70.0 °F - 51.1 °F 51% 29.99 in 10.0 mi SE 9.2 mph - N/A   Clear
10:54 PM 70.0 °F - 50.0 °F 49% 29.99 in 10.0 mi SSE 8.1 mph - N/A   Clear
11:54 PM 68.0 °F - 50.0 °F 52% 29.99 in 10.0 mi SSE 9.2 mph - N/A   Clear